| time (UTC) | temp F | wind direction | speed knots | gust knots | rain 1hr in | rain 24hr in | rain mn in | humidity % | barometer mb |
| 20260505075827 | 62 | 209 | 0.0 | 1.7 | 0.00 | 0.00 | 0.00 | 60 | 1011.2 |
| 20260505075324 | 62 | 115 | 0.0 | 1.7 | 0.00 | 0.00 | 0.00 | 60 | 1011.3 |
| 20260505074821 | 62 | 138 | 0.0 | 0.9 | 0.00 | 0.00 | 0.00 | 60 | 1011.3 |
| 20260505074318 | 62 | 299 | 3.5 | 5.2 | 0.00 | 0.00 | 0.00 | 59 | 1011.2 |
| 20260505073816 | 62 | 166 | 0.0 | 0.9 | 0.00 | 0.00 | 0.00 | 60 | 1011.1 |
| 20260505073314 | 62 | 106 | 0.9 | 3.5 | 0.00 | 0.00 | 0.00 | 60 | 1011.0 |
| 20260505072810 | 62 | 209 | 0.9 | 1.7 | 0.00 | 0.00 | 0.00 | 60 | 1011.2 |
| 20260505072306 | 62 | 98 | 0.9 | 1.7 | 0.00 | 0.00 | 0.00 | 60 | 1011.2 |
| 20260505071802 | 62 | 174 | 0.0 | 1.7 | 0.00 | 0.00 | 0.00 | 60 | 1011.2 |
| 20260505071259 | 62 | 98 | 0.0 | 0.9 | 0.00 | 0.00 | 0.00 | 61 | 1011.1 |
| 20260505070757 | 62 | 150 | 0.0 | 0.9 | 0.00 | 0.00 | 0.00 | 62 | 1011.0 |
| 20260505070253 | 62 | 95 | 0.9 | 0.9 | 0.00 | 0.00 | 0.00 | 62 | 1011.0 |
| 20260505065748 | 62 | 190 | 0.0 | 0.9 | 0.00 | 0.00 | 0.00 | 62 | 1011.1 |
| 20260505065246 | 62 | 221 | 0.0 | 1.7 | 0.00 | 0.00 | 0.00 | 62 | 1011.1 |
| 20260505064743 | 62 | 202 | 0.0 | 1.7 | 0.00 | 0.00 | 0.00 | 62 | 1011.2 |
| 20260505064240 | 63 | 105 | 0.0 | 1.7 | 0.00 | 0.00 | 0.00 | 62 | 1011.0 |
| 20260505063738 | 63 | 101 | 0.9 | 2.6 | 0.00 | 0.00 | 0.00 | 62 | 1011.1 |
| 20260505063234 | 63 | 207 | 0.0 | 0.9 | 0.00 | 0.00 | 0.00 | 62 | 1011.4 |
| 20260505062730 | 63 | 233 | 0.9 | 3.5 | 0.00 | 0.00 | 0.00 | 63 | 1011.2 |
| 20260505062228 | 63 | 322 | 0.0 | 0.9 | 0.00 | 0.00 | 0.00 | 65 | 1011.3 |
| 20260505061725 | 65 | 240 | 0.0 | 2.6 | 0.00 | 0.00 | 0.00 | 59 | 1011.5 |
| 20260505061223 | 64 | 231 | 0.9 | 6.1 | 0.00 | 0.00 | 0.00 | 56 | 1011.5 |
| 20260505060720 | 64 | 266 | 0.9 | 2.6 | 0.00 | 0.00 | 0.00 | 56 | 1011.4 |
| 20260505060217 | 64 | 176 | 0.0 | 2.6 | 0.00 | 0.00 | 0.00 | 59 | 1011.3 |
| 20260505055712 | 64 | 153 | 0.0 | 2.6 | 0.00 | 0.00 | 0.00 | 58 | 1011.4 |
| 20260505055209 | 64 | 182 | 0.0 | 3.5 | 0.00 | 0.00 | 0.00 | 58 | 1011.3 |
| 20260505054706 | 64 | 179 | 0.0 | 0.9 | 0.00 | 0.00 | 0.00 | 58 | 1011.5 |
| 20260505054204 | 63 | 234 | 3.5 | 5.2 | 0.00 | 0.00 | 0.00 | 59 | 1011.3 |
| 20260505053702 | 63 | 188 | 0.9 | 1.7 | 0.00 | 0.00 | 0.00 | 59 | 1011.2 |
| 20260505053158 | 63 | 86 | 0.9 | 1.7 | 0.00 | 0.00 | 0.00 | 60 | 1011.3 |
| 20260505052655 | 63 | 127 | 0.0 | 1.7 | 0.00 | 0.00 | 0.00 | 61 | 1011.1 |
| 20260505052152 | 62 | 115 | 0.0 | 0.0 | 0.00 | 0.00 | 0.00 | 63 | 1011.4 |
| 20260505051649 | 62 | 183 | 0.0 | 2.6 | 0.00 | 0.00 | 0.00 | 62 | 1011.3 |
| 20260505051147 | 61 | 35 | 0.0 | 0.9 | 0.00 | 0.00 | 0.00 | 65 | 1011.2 |
| 20260505050645 | 60 | 105 | 0.0 | 0.9 | 0.00 | 0.00 | 0.00 | 67 | 1011.4 |
| 20260505050143 | 60 | 118 | 0.9 | 1.7 | 0.00 | 0.00 | 0.00 | 66 | 1011.4 |
| 20260505041612 | 57 | 105 | 0.0 | 0.0 | 0.00 | 0.00 | 0.00 | 75 | 1011.0 |
| 20260505041110 | 57 | 105 | 0.0 | 0.0 | 0.00 | 0.00 | 0.00 | 74 | 1011.2 |
| 20260505040607 | 57 | 105 | 0.0 | 0.0 | 0.00 | 0.00 | 0.00 | 74 | 1011.4 |
| 20260505040104 | 58 | 106 | 0.0 | 0.0 | 0.00 | 0.00 | 0.00 | 72 | 1011.2 |
| 20260505035600 | 58 | 106 | 0.0 | 0.0 | 0.00 | 0.00 | 0.00 | 72 | 1011.4 |
| 20260505035057 | 58 | 94 | 0.0 | 0.0 | 0.00 | 0.00 | 0.00 | 72 | 1011.1 |
| 20260505034553 | 58 | 94 | 0.0 | 0.0 | 0.00 | 0.00 | 0.00 | 72 | 1011.3 |
| 20260505034050 | 59 | 107 | 0.0 | 0.0 | 0.00 | 0.00 | 0.00 | 71 | 1011.1 |
| 20260505033547 | 59 | 110 | 0.0 | 0.0 | 0.00 | 0.00 | 0.00 | 70 | 1011.1 |
| 20260505033045 | 59 | 105 | 0.0 | 0.0 | 0.00 | 0.00 | 0.00 | 70 | 1011.3 |
| 20260505032543 | 59 | 111 | 0.0 | 0.0 | 0.00 | 0.00 | 0.00 | 69 | 1011.3 |
| 20260505032039 | 60 | 143 | 0.0 | 0.0 | 0.00 | 0.00 | 0.00 | 68 | 1011.4 |
| 20260505031537 | 60 | 144 | 0.0 | 0.0 | 0.00 | 0.00 | 0.00 | 68 | 1011.0 |
| 20260505031033 | 60 | 148 | 0.0 | 0.0 | 0.00 | 0.00 | 0.00 | 67 | 1011.4 |
| 20260505030530 | 60 | 152 | 0.0 | 0.0 | 0.00 | 0.00 | 0.00 | 67 | 1011.3 |
| 20260505030026 | 61 | 157 | 0.0 | 0.0 | 0.00 | 0.00 | 0.00 | 66 | 1011.4 |
| 20260505025522 | 61 | 72 | 0.0 | 0.0 | 0.00 | 0.00 | 0.00 | 66 | 1011.4 |
| 20260505025021 | 61 | 72 | 0.0 | 0.0 | 0.00 | 0.00 | 0.00 | 65 | 1011.1 |
| 20260505024517 | 60 | 100 | 0.0 | 0.0 | 0.00 | 0.00 | 0.00 | 67 | 1011.2 |
| 20260505024015 | 60 | 114 | 0.0 | 0.0 | 0.00 | 0.00 | 0.00 | 68 | 1011.1 |
| 20260505023511 | 60 | 113 | 0.0 | 0.0 | 0.00 | 0.00 | 0.00 | 69 | 1011.3 |
| 20260505023009 | 60 | 114 | 0.0 | 0.0 | 0.00 | 0.00 | 0.00 | 67 | 1011.4 |
| 20260505022507 | 60 | 113 | 0.0 | 0.0 | 0.00 | 0.00 | 0.00 | 69 | 1011.4 |
| 20260505022004 | 60 | 123 | 0.0 | 0.0 | 0.00 | 0.00 | 0.00 | 69 | 1011.4 |
| 20260505021500 | 60 | 126 | 0.0 | 0.0 | 0.00 | 0.00 | 0.00 | 69 | 1011.3 |
| 20260505020955 | 60 | 127 | 0.0 | 0.0 | 0.00 | 0.00 | 0.00 | 68 | 1011.4 |
| 20260505020451 | 60 | 126 | 0.0 | 0.0 | 0.00 | 0.00 | 0.00 | 69 | 1011.3 |
| 20260505015948 | 60 | 145 | 0.0 | 0.0 | 0.00 | 0.00 | 0.00 | 70 | 1011.4 |
| 20260505015446 | 60 | 145 | 0.0 | 0.0 | 0.00 | 0.00 | 0.00 | 69 | 1011.3 |
| 20260505014942 | 60 | 156 | 0.0 | 0.0 | 0.00 | 0.00 | 0.00 | 68 | 1011.5 |
| 20260505014439 | 60 | 162 | 0.0 | 0.0 | 0.00 | 0.00 | 0.00 | 69 | 1011.4 |
| 20260505013937 | 60 | 106 | 0.0 | 0.0 | 0.00 | 0.00 | 0.00 | 69 | 1011.4 |
| 20260505013433 | 61 | 106 | 0.0 | 0.0 | 0.00 | 0.00 | 0.00 | 68 | 1011.5 |
| 20260505012931 | 62 | 106 | 0.0 | 0.0 | 0.00 | 0.00 | 0.00 | 66 | 1011.5 |
| 20260505012429 | 62 | 107 | 0.0 | 0.0 | 0.00 | 0.00 | 0.00 | 66 | 1011.7 |
| 20260505011925 | 62 | 107 | 0.0 | 0.0 | 0.00 | 0.00 | 0.00 | 65 | 1011.5 |
| 20260505011421 | 63 | 108 | 0.0 | 0.9 | 0.00 | 0.00 | 0.00 | 63 | 1011.5 |
| 20260505010918 | 64 | 115 | 0.0 | 0.9 | 0.00 | 0.00 | 0.00 | 61 | 1011.6 |
| 20260505010414 | 64 | 151 | 0.0 | 0.9 | 0.00 | 0.00 | 0.00 | 60 | 1011.6 |
| 20260505005910 | 65 | 172 | 0.0 | 0.9 | 0.00 | 0.00 | 0.00 | 59 | 1011.5 |
| 20260505005407 | 65 | 131 | 0.0 | 0.0 | 0.00 | 0.00 | 0.00 | 58 | 1011.7 |
| 20260505004905 | 65 | 230 | 0.9 | 0.9 | 0.00 | 0.00 | 0.00 | 58 | 1011.4 |
| 20260505004401 | 66 | 118 | 0.0 | 1.7 | 0.00 | 0.00 | 0.00 | 57 | 1011.5 |
| 20260505003858 | 67 | 117 | 0.0 | 0.0 | 0.00 | 0.00 | 0.00 | 55 | 1011.3 |
| 20260505003355 | 67 | 82 | 0.9 | 5.2 | 0.00 | 0.00 | 0.00 | 54 | 1011.5 |
| 20260505002851 | 68 | 241 | 5.2 | 7.0 | 0.00 | 0.00 | 0.00 | 53 | 1011.4 |
| 20260505002348 | 68 | 266 | 3.5 | 3.5 | 0.00 | 0.00 | 0.00 | 53 | 1011.3 |
| 20260505001847 | 68 | 243 | 2.6 | 3.5 | 0.00 | 0.00 | 0.00 | 53 | 1011.3 |
| 20260505001343 | 68 | 282 | 5.2 | 6.1 | 0.00 | 0.00 | 0.00 | 51 | 1011.4 |
| 20260505000841 | 68 | 346 | 0.9 | 5.2 | 0.00 | 0.00 | 0.00 | 53 | 1011.5 |
| 20260505000338 | 69 | 213 | 2.6 | 2.6 | 0.00 | 0.00 | 0.00 | 51 | 1011.3 |
| 20260504235835 | 69 | 281 | 1.7 | 6.1 | 0.00 | 0.00 | 0.00 | 51 | 1011.2 |
| 20260504235332 | 68 | 224 | 2.6 | 7.8 | 0.00 | 0.00 | 0.00 | 52 | 1011.5 |
| 20260504234828 | 68 | 172 | 0.0 | 2.6 | 0.00 | 0.00 | 0.00 | 54 | 1011.4 |
| 20260504234326 | 68 | 202 | 0.9 | 1.7 | 0.00 | 0.00 | 0.00 | 54 | 1011.3 |
| 20260504233822 | 68 | 243 | 7.0 | 7.8 | 0.00 | 0.00 | 0.00 | 52 | 1011.3 |
| 20260504233318 | 69 | 251 | 2.6 | 2.6 | 0.00 | 0.00 | 0.00 | 54 | 1011.2 |
| 20260504232815 | 69 | 261 | 1.7 | 3.5 | 0.00 | 0.00 | 0.00 | 53 | 1011.0 |
| 20260504232312 | 70 | 265 | 3.5 | 3.5 | 0.00 | 0.00 | 0.00 | 51 | 1011.2 |
| 20260504231809 | 69 | 242 | 1.7 | 1.7 | 0.00 | 0.00 | 0.00 | 52 | 1011.0 |
| 20260504231306 | 69 | 236 | 1.7 | 1.7 | 0.00 | 0.00 | 0.00 | 55 | 1011.2 |
| 20260504230801 | 70 | 145 | 0.0 | 1.7 | 0.00 | 0.00 | 0.00 | 53 | 1010.9 |
| 20260504230300 | 69 | 212 | 0.0 | 0.9 | 0.00 | 0.00 | 0.00 | 54 | 1011.1 |
| 20260504225758 | 69 | 251 | 1.7 | 1.7 | 0.00 | 0.00 | 0.00 | 53 | 1011.4 |
| 20260504225254 | 70 | 288 | 0.0 | 1.7 | 0.00 | 0.00 | 0.00 | 52 | 1011.3 |
| 20260504224751 | 71 | 224 | 0.0 | 0.9 | 0.00 | 0.00 | 0.00 | 53 | 1011.0 |
| 20260504224249 | 70 | 259 | 2.6 | 3.5 | 0.00 | 0.00 | 0.00 | 50 | 1011.4 |
| 20260504223745 | 70 | 275 | 1.7 | 2.6 | 0.00 | 0.00 | 0.00 | 50 | 1011.3 |
| 20260504223240 | 70 | 185 | 0.0 | 0.9 | 0.00 | 0.00 | 0.00 | 51 | 1011.4 |
| 20260504222738 | 71 | 211 | 0.0 | 2.6 | 0.00 | 0.00 | 0.00 | 51 | 1011.5 |
| 20260504222234 | 72 | 248 | 3.5 | 7.0 | 0.00 | 0.00 | 0.00 | 47 | 1011.5 |
| 20260504221732 | 71 | 211 | 2.6 | 11.3 | 0.00 | 0.00 | 0.00 | 49 | 1011.6 |
| 20260504221229 | 70 | 256 | 4.3 | 7.8 | 0.00 | 0.00 | 0.00 | 50 | 1011.5 |
| 20260504220725 | 71 | 274 | 2.6 | 8.7 | 0.00 | 0.00 | 0.00 | 49 | 1011.7 |
| 20260504220223 | 72 | 282 | 4.3 | 8.7 | 0.00 | 0.00 | 0.00 | 48 | 1011.5 |
| 20260504215720 | 71 | 190 | 5.2 | 8.7 | 0.00 | 0.00 | 0.00 | 48 | 1011.3 |
| 20260504215217 | 71 | 122 | 2.6 | 5.2 | 0.00 | 0.00 | 0.00 | 49 | 1011.3 |
| 20260504214712 | 71 | 316 | 2.6 | 7.8 | 0.00 | 0.00 | 0.00 | 49 | 1011.2 |
| 20260504214209 | 72 | 297 | 6.1 | 8.7 | 0.00 | 0.00 | 0.00 | 46 | 1011.1 |
| 20260504213706 | 73 | 289 | 2.6 | 8.7 | 0.00 | 0.00 | 0.00 | 49 | 1010.9 |
| 20260504213202 | 73 | 231 | 3.5 | 12.2 | 0.00 | 0.00 | 0.00 | 49 | 1011.0 |
| 20260504212659 | 72 | 264 | 4.3 | 6.1 | 0.00 | 0.00 | 0.00 | 49 | 1011.0 |
| 20260504212155 | 71 | 276 | 2.6 | 6.1 | 0.00 | 0.00 | 0.00 | 49 | 1011.3 |
| 20260504211653 | 70 | 287 | 3.5 | 7.8 | 0.00 | 0.00 | 0.00 | 50 | 1010.9 |
| 20260504211149 | 70 | 270 | 1.7 | 5.2 | 0.00 | 0.00 | 0.00 | 49 | 1011.1 |
| 20260504210647 | 70 | 246 | 2.6 | 6.1 | 0.00 | 0.00 | 0.00 | 50 | 1011.1 |
| 20260504210143 | 71 | 279 | 1.7 | 8.7 | 0.00 | 0.00 | 0.00 | 49 | 1010.9 |
| 20260504205641 | 70 | 267 | 2.6 | 3.5 | 0.00 | 0.00 | 0.00 | 48 | 1011.0 |
| 20260504205138 | 70 | 282 | 7.8 | 8.7 | 0.00 | 0.00 | 0.00 | 48 | 1010.8 |
| 20260504204637 | 70 | 233 | 1.7 | 6.1 | 0.00 | 0.00 | 0.00 | 48 | 1011.0 |
| 20260504204135 | 70 | 266 | 5.2 | 7.8 | 0.00 | 0.00 | 0.00 | 48 | 1011.0 |
| 20260504203633 | 70 | 281 | 3.5 | 7.0 | 0.00 | 0.00 | 0.00 | 49 | 1010.9 |
| 20260504203131 | 71 | 272 | 5.2 | 7.0 | 0.00 | 0.00 | 0.00 | 47 | 1011.1 |
| 20260504202631 | 72 | 220 | 3.5 | 7.8 | 0.00 | 0.00 | 0.00 | 45 | 1011.2 |
| 20260504202128 | 73 | 266 | 3.5 | 3.5 | 0.00 | 0.00 | 0.00 | 51 | 1010.9 |
| 20260504201625 | 71 | 264 | 10.4 | 12.2 | 0.00 | 0.00 | 0.00 | 46 | 1011.2 |
| 20260504201123 | 71 | 283 | 9.6 | 12.2 | 0.00 | 0.00 | 0.00 | 46 | 1011.1 |
| 20260504200620 | 71 | 213 | 3.5 | 7.0 | 0.00 | 0.00 | 0.00 | 49 | 1011.2 |
| 20260504200116 | 70 | 203 | 3.5 | 7.8 | 0.00 | 0.00 | 0.00 | 49 | 1011.1 |
| 20260504195612 | 71 | 216 | 5.2 | 8.7 | 0.00 | 0.00 | 0.00 | 48 | 1011.2 |
| 20260504195108 | 73 | 259 | 4.3 | 7.0 | 0.00 | 0.00 | 0.00 | 47 | 1011.2 |
| 20260504194605 | 70 | 236 | 4.3 | 8.7 | 0.00 | 0.00 | 0.00 | 48 | 1011.3 |
| 20260504194101 | 72 | 109 | 2.6 | 6.1 | 0.00 | 0.00 | 0.00 | 47 | 1011.3 |
| 20260504193557 | 73 | 283 | 3.5 | 12.2 | 0.00 | 0.00 | 0.00 | 47 | 1011.3 |
| 20260504193056 | 72 | 233 | 1.7 | 7.8 | 0.00 | 0.00 | 0.00 | 47 | 1011.2 |
| 20260504192554 | 72 | 246 | 3.5 | 3.5 | 0.00 | 0.00 | 0.00 | 49 | 1011.2 |
| 20260504192052 | 73 | 230 | 4.3 | 8.7 | 0.00 | 0.00 | 0.00 | 47 | 1011.3 |
| 20260504191550 | 73 | 182 | 1.7 | 3.5 | 0.00 | 0.00 | 0.00 | 46 | 1011.4 |
| 20260504191045 | 73 | 285 | 3.5 | 5.2 | 0.00 | 0.00 | 0.00 | 48 | 1011.6 |
| 20260504190542 | 72 | 134 | 0.9 | 3.5 | 0.00 | 0.00 | 0.00 | 51 | 1011.6 |
| 20260504190038 | 70 | 208 | 0.9 | 2.6 | 0.00 | 0.00 | 0.00 | 48 | 1011.7 |
| 20260504185535 | 71 | 224 | 5.2 | 8.7 | 0.00 | 0.00 | 0.00 | 50 | 1011.7 |
| 20260504185032 | 72 | 222 | 1.7 | 5.2 | 0.00 | 0.00 | 0.00 | 47 | 1011.7 |
| 20260504184527 | 70 | 237 | 4.3 | 6.1 | 0.00 | 0.00 | 0.00 | 49 | 1011.6 |
| 20260504184023 | 69 | 59 | 2.6 | 11.3 | 0.00 | 0.00 | 0.00 | 54 | 1011.7 |
| 20260504183520 | 70 | 257 | 8.7 | 16.5 | 0.00 | 0.00 | 0.00 | 49 | 1012.0 |
| 20260504183019 | 69 | 307 | 5.2 | 12.2 | 0.00 | 0.00 | 0.00 | 52 | 1011.9 |
| 20260504182515 | 70 | 237 | 3.5 | 8.7 | 0.00 | 0.00 | 0.00 | 50 | 1012.1 |
| 20260504182012 | 68 | 249 | 3.5 | 11.3 | 0.00 | 0.00 | 0.00 | 53 | 1012.1 |
| 20260504181509 | 69 | 96 | 2.6 | 7.0 | 0.00 | 0.00 | 0.00 | 52 | 1012.0 |
| 20260504181008 | 68 | 266 | 6.1 | 7.8 | 0.00 | 0.00 | 0.00 | 51 | 1012.0 |
| 20260504180506 | 69 | 241 | 5.2 | 7.8 | 0.00 | 0.00 | 0.00 | 53 | 1012.1 |
| 20260504180004 | 69 | 221 | 7.8 | 11.3 | 0.00 | 0.00 | 0.00 | 50 | 1012.1 |
| 20260504175501 | 69 | 105 | 0.9 | 5.2 | 0.00 | 0.00 | 0.00 | 54 | 1012.2 |
| 20260504174958 | 68 | 258 | 7.8 | 11.3 | 0.00 | 0.00 | 0.00 | 53 | 1012.4 |
| 20260504174456 | 67 | 283 | 9.6 | 13.0 | 0.00 | 0.00 | 0.00 | 52 | 1012.3 |
| 20260504173953 | 68 | 177 | 5.2 | 15.6 | 0.00 | 0.00 | 0.00 | 53 | 1012.2 |
| 20260504173449 | 69 | 236 | 1.7 | 7.8 | 0.00 | 0.00 | 0.00 | 53 | 1012.3 |
| 20260504172947 | 68 | 268 | 3.5 | 12.2 | 0.00 | 0.00 | 0.00 | 54 | 1012.4 |
| 20260504172443 | 69 | 272 | 3.5 | 7.0 | 0.00 | 0.00 | 0.00 | 54 | 1012.5 |
| 20260504171939 | 68 | 237 | 4.3 | 9.6 | 0.00 | 0.00 | 0.00 | 54 | 1012.4 |
| 20260504171437 | 68 | 235 | 5.2 | 13.0 | 0.00 | 0.00 | 0.00 | 53 | 1012.5 |
| 20260504170934 | 68 | 262 | 2.6 | 7.8 | 0.00 | 0.00 | 0.00 | 52 | 1012.9 |
| 20260504170430 | 67 | 261 | 5.2 | 13.0 | 0.00 | 0.00 | 0.00 | 52 | 1012.9 |
| 20260504160349 | 66 | 253 | 3.5 | 7.0 | 0.00 | 0.00 | 0.00 | 49 | 1013.6 |
| 20260504150813 | 65 | 263 | 4.3 | 13.9 | 0.00 | 0.00 | 0.00 | 52 | 1014.4 |
| 20260504150310 | 65 | 233 | 4.3 | 7.0 | 0.00 | 0.00 | 0.00 | 50 | 1014.2 |
| 20260504141240 | 62 | 245 | 3.5 | 6.1 | 0.00 | 0.00 | 0.00 | 49 | 1014.3 |
| 20260504140736 | 61 | 292 | 6.1 | 7.8 | 0.00 | 0.00 | 0.00 | 52 | 1014.1 |
| 20260504140232 | 62 | 274 | 6.1 | 11.3 | 0.00 | 0.00 | 0.00 | 50 | 1014.2 |
| 20260504130701 | 58 | 32 | 0.9 | 3.5 | 0.00 | 0.00 | 0.00 | 57 | 1014.3 |
| 20260504130157 | 57 | 272 | 2.6 | 6.1 | 0.00 | 0.00 | 0.00 | 55 | 1014.2 |
| 20260504120121 | 56 | 269 | 0.9 | 1.7 | 0.00 | 0.00 | 0.00 | 61 | 1014.3 |
| 20260504110549 | 48 | 147 | 0.0 | 0.0 | 0.00 | 0.00 | 0.00 | 78 | 1014.7 |
| 20260504100510 | 49 | 101 | 0.0 | 0.0 | 0.00 | 0.00 | 0.00 | 71 | 1014.8 |
| 20260504081903 | 50 | 235 | 0.0 | 0.9 | 0.00 | 0.00 | 0.00 | 60 | 1015.5 |
| 20260504081400 | 50 | 223 | 0.0 | 1.7 | 0.00 | 0.00 | 0.00 | 59 | 1015.5 |
| 20260504080856 | 50 | 241 | 0.9 | 1.7 | 0.00 | 0.00 | 0.00 | 58 | 1015.6 |
| 20260504080353 | 50 | 225 | 0.0 | 0.9 | 0.00 | 0.00 | 0.00 | 58 | 1015.5 |